User: anonymous   Login
Location: Oshawa
(43.9000°N, 78.8670°W)
Time: 04:21:40
(UTC-04:00)
Language:

Cosmos 1805 Rocket - Orbit

View from above orbital plane
View from above orbital plane
View from above satellite
View from above satellite

Ground track
Ground track

The orbit data is extracted from the following two-line orbital elements,

1 17192U 86097B   15149.15849693  .00000206  00000-0  22213-4 0  9997
2 17192 082.5079 240.3510 0018259 056.7191 344.5813 14.83297301537485
Epoch (UTC): 29 May 2015 03:48:14
Eccentricity: 0.0018259
inclination: 82.5079°
perigee height: 606 km
apogee height: 632 km
right ascension of ascending node: 240.3510°
argument of perigee: 56.7191°
revolutions per day: 14.83297301
mean anomaly at epoch: 344.5813°
orbit number at epoch: 53748

The dashed part of the orbit path shows where the satellite is in the earth's shadow,  

DLR